Погода в Творишине

Россия / Брянская область     52°56′09″N   32°02′22″E
темп.,
°C
ветер,
м/с
пор.,
м/с
влажн.,
%
обл.,
%
осадки,
мм/ч
давл.,
гПа
погр.,
м
15 мая, сб
сб1500:00+12ю23905 0.0 100625
03:00+11ю36945 0.0 100696
06:00+10ю389555 0.0 1007186
09:00+14ююз588222 0.0 1008461
12:00+16ююз687692 0.7 10081086
15:00+17юз777365 2.0 10081137
18:00+16ююз688260 0.1 1009832
21:00+13ю499220 1.0 1009164
16 мая, вс
вс1600:00+11ююз489483 0.0 1010153
03:00+10ююз36947 0.0 1011117
06:00+10ююз369686 0.0 1012147
09:00+15юз458433 0.0 1012481
12:00+19ююз346863 0.1 10131222
15:00+19ююз3464100 0.3 10121074
18:00+20ю236494 0.1 1012893
21:00+15ююв2279100 0.3 101211
17 мая, пн
пн1700:00+13вюв2286100 0.0 101119
03:00+12вюв3490100 0.0 101147
06:00+12в499087 0.0 1010176
09:00+17в5879100 0.1 1008344
12:00+21в577090 0.9 1006877
15:00+24юв6859100 0.9 10031481
18:00+21юв497682 0.1 1002349
21:00+17вюв41090100 0.1 1001184
18 мая, вт
вт1800:00+17вюв6139392 0.3 1000456
03:00+17юв61293100 0.8 998700
06:00+15ююз5898100 0.6 998517
09:00+14юз71191100 0.6 1002694
12:00+15ююз578964 0.4 1005628
15:00+19зюз466392 1.9 10051351
18:00+19з236676 0.4 1005377
21:00+14зсз488397 0.5 1006222
19 мая, ср
ср1900:00+13з4891100 0.2 1007322
03:00+12сз4896100 4.4 1006363
06:00+11з3797100 1.6 1007368
09:00+12зсз6987100 1.6 1007576
12:00+16з7866100 0.0 10081413
15:00+16з796617 0.4 10081528
18:00+17з57692 0.1 10081321
21:00+12зюз338365 0.1 101035